EA5CH Weather Reports


time (UTC)temp
C
wind
direction
speed
KPH
gust
KPH
rain 1hr
cm
rain 24hr
cm
rain mn
cm
humidity
%
barometer
mb
20260507002519 16 0.0 1.6 0.00 0.00 0.00 76 1013.1
20260507001537 16 45 1.6 3.2 0.00 0.00 0.00 76 1013.2
20260507000519 16 45 1.6 6.4 0.00 0.00 0.00 76 1013.2
20260506235519 16 0 1.6 4.8 0.00 0.00 0.00 76 1013.4
20260506234517 16 23 1.6 4.8 0.00 0.00 0.00 76 1013.4
20260506233517 16 23 1.6 4.8 0.00 0.00 0.00 76 1013.5
20260506232519 16 23 3.2 8.0 0.00 0.00 0.00 76 1013.5
20260506231519 16 45 3.2 9.7 0.00 0.00 0.00 75 1013.6
20260506230517 16 0 3.2 9.7 0.00 0.00 0.00 76 1013.6
20260506225519 16 45 3.2 8.0 0.00 0.00 0.00 77 1013.6
20260506224519 16 23 1.6 6.4 0.00 0.00 0.00 77 1013.5
20260506223517 16 45 3.2 8.0 0.00 0.00 0.00 77 1013.6
20260506222519 16 45 1.6 8.0 0.00 0.00 0.00 77 1013.8
20260506221519 16 23 1.6 6.4 0.00 0.00 0.00 77 1013.8
20260506220520 16 45 1.6 4.8 0.00 0.00 0.00 77 1013.9
20260506215539 16 0.0 3.2 0.00 0.00 0.00 77 1014.0
20260506214517 17 23 1.6 6.4 0.00 0.00 0.00 77 1014.1
20260506213537 16 0 3.2 6.4 0.00 0.00 0.00 77 1014.1
20260506212519 16 0 1.6 4.8 0.00 0.00 0.00 77 1014.0
20260506211518 17 0 3.2 6.4 0.00 0.00 0.00 76 1014.1
20260506210517 17 23 3.2 8.0 0.00 0.00 0.00 76 1013.8
20260506205519 17 0 3.2 8.0 0.00 0.00 0.00 76 1013.8
20260506204519 17 0.0 6.4 0.00 0.00 0.00 76 1013.8
20260506203517 17 23 1.6 4.8 0.00 0.00 0.00 75 1013.7
20260506202537 17 90 6.4 12.9 0.00 0.00 0.00 76 1013.6
20260506201519 17 68 6.4 16.1 0.00 0.00 0.00 76 1013.3
20260506200519 18 68 4.8 12.9 0.00 0.00 0.00 76 1013.3
20260506195518 18 68 3.2 9.7 0.00 0.00 0.00 76 1013.2
20260506194519 18 68 4.8 12.9 0.00 0.00 0.00 76 1012.9
20260506193539 18 68 8.0 22.5 0.00 0.00 0.00 76 1012.7
20260506192518 18 68 6.4 19.3 0.00 0.00 0.00 76 1012.8
20260506191517 18 225 8.0 17.7 0.00 0.00 0.00 76 1012.7
20260506190519 18 225 6.4 14.5 0.00 0.00 0.00 76 1012.6
20260506185520 18 68 6.4 19.3 0.00 0.00 0.00 75 1012.5
20260506184517 18 45 6.4 17.7 0.00 0.00 0.00 76 1012.5
20260506183517 18 225 8.0 17.7 0.00 0.00 0.00 75 1012.5
20260506182517 18 90 8.0 17.7 0.00 0.00 0.00 75 1012.4
20260506181517 18 68 8.0 20.9 0.00 0.00 0.00 75 1012.4
20260506180517 18 225 4.8 11.3 0.00 0.00 0.00 75 1012.4
20260506175517 18 68 9.7 20.9 0.00 0.00 0.00 74 1012.3
20260506174519 18 90 6.4 19.3 0.00 0.00 0.00 74 1012.2
20260506173520 19 90 6.4 17.7 0.00 0.00 0.00 74 1012.3
20260506172517 18 90 9.7 17.7 0.00 0.00 0.00 73 1012.3
20260506171517 19 68 11.3 25.7 0.00 0.00 0.00 73 1012.3
20260506170539 20 113 9.7 24.1 0.00 0.00 0.00 71 1012.3
20260506165518 20 225 6.4 14.5 0.00 0.00 0.00 71 1012.4
20260506164517 19 68 9.7 22.5 0.00 0.00 0.00 71 1012.2
20260506163537 20 90 8.0 22.5 0.00 0.00 0.00 69 1012.3
20260506162519 20 293 6.4 14.5 0.00 0.00 0.00 69 1012.3
20260506161537 20 90 9.7 22.5 0.00 0.00 0.00 69 1012.1
20260506160517 20 90 8.0 17.7 0.00 0.00 0.00 67 1012.2
20260506155519 20 90 8.0 17.7 0.00 0.00 0.00 69 1012.2
20260506154518 20 113 12.9 27.4 0.00 0.00 0.00 67 1012.2
20260506153517 20 68 12.9 27.4 0.00 0.00 0.00 66 1012.1
20260506152559 20 90 8.0 19.3 0.00 0.00 0.00 66 1012.1
20260506151517 20 68 6.4 14.5 0.00 0.00 0.00 68 1012.1
20260506150517 20 113 9.7 20.9 0.00 0.00 0.00 70 1012.2
20260506145537 20 135 8.0 24.1 0.00 0.00 0.00 70 1012.3
20260506144519 20 113 8.0 27.4 0.00 0.00 0.00 68 1012.4
20260506143538 21 225 8.0 22.5 0.00 0.00 0.00 69 1012.5
20260506142517 21 68 9.7 25.7 0.00 0.00 0.00 70 1012.4
20260506141637 21 68 9.7 29.0 0.00 0.00 0.00 69 1012.5
20260506140519 21 113 11.3 29.0 0.00 0.00 0.00 69 1012.5
20260506135519 21 68 11.3 22.5 0.00 0.00 0.00 69 1012.5
20260506134517 21 113 11.3 37.0 0.00 0.00 0.00 68 1012.6
20260506133517 21 90 9.7 22.5 0.00 0.00 0.00 69 1012.5
20260506132517 20 90 12.9 29.0 0.00 0.00 0.00 71 1012.7
20260506131538 21 68 11.3 24.1 0.00 0.00 0.00 70 1012.7
20260506130518 20 90 11.3 25.7 0.00 0.00 0.00 72 1012.9
20260506125517 21 68 11.3 33.8 0.00 0.00 0.00 72 1012.9
20260506124519 21 135 9.7 25.7 0.00 0.00 0.00 71 1013.0
20260506123558 21 68 9.7 27.4 0.00 0.00 0.00 71 1012.9
20260506122517 21 225 9.7 27.4 0.00 0.00 0.00 71 1012.9
20260506121519 20 68 14.5 27.4 0.00 0.00 0.00 72 1012.8
20260506120538 20 68 12.9 32.2 0.00 0.00 0.00 71 1013.0
20260506115518 20 180 12.9 30.6 0.00 0.00 0.00 71 1013.0
20260506114517 20 203 14.5 30.6 0.00 0.00 0.00 71 1013.0
20260506113518 20 90 14.5 29.0 0.00 0.00 0.00 71 1013.2
20260506112518 20 90 12.9 30.6 0.00 0.00 0.00 72 1013.1
20260506111519 21 90 9.7 24.1 0.00 0.00 0.00 72 1013.3
20260506110518 20 113 9.7 27.4 0.00 0.00 0.00 74 1013.4
20260506105537 20 90 9.7 29.0 0.00 0.00 0.00 73 1013.5
20260506104517 21 158 8.0 17.7 0.00 0.00 0.00 71 1013.3
20260506103517 21 113 8.0 16.1 0.00 0.00 0.00 71 1013.2
20260506102518 21 90 9.7 19.3 0.00 0.00 0.00 71 1013.3
20260506101517 21 90 9.7 30.6 0.00 0.00 0.00 70 1013.2
20260506100517 21 90 11.3 22.5 0.00 0.00 0.00 70 1013.2
20260506095538 21 113 8.0 17.7 0.00 0.00 0.00 70 1013.3
20260506094518 21 90 8.0 22.5 0.00 0.00 0.00 69 1013.3
20260506093518 21 135 8.0 16.1 0.00 0.00 0.00 67 1013.3
20260506092537 21 113 4.8 11.3 0.00 0.00 0.00 67 1013.1
20260506091517 21 90 3.2 11.3 0.00 0.00 0.00 66 1013.1
20260506090517 21 113 4.8 11.3 0.00 0.00 0.00 67 1012.9
20260506085518 21 90 4.8 12.9 0.00 0.00 0.00 66 1012.9
20260506084520 20 90 4.8 12.9 0.00 0.00 0.00 67 1012.9
20260506083538 20 68 4.8 11.3 0.00 0.00 0.00 67 1012.9
20260506082517 20 113 4.8 11.3 0.00 0.00 0.00 68 1012.8
20260506081517 20 45 1.6 6.4 0.00 0.00 0.00 70 1012.8
20260506080518 20 113 3.2 6.4 0.00 0.00 0.00 72 1012.8
20260506072538 20 0.0 1.6 0.00 0.00 0.00 74 1012.9
20260506071518 20 0.0 1.6 0.00 0.00 0.00 75 1013.0
20260506070517 20 0.0 1.6 0.00 0.00 0.00 76 1013.0
20260506061518 18 0.0 0.0 0.00 0.00 0.00 82 1012.9
20260506060518 17 0.0 0.0 0.00 0.00 0.00 84 1012.8
20260506050518 15 0.0 0.0 0.00 0.00 0.00 87 1012.3
20260506044517 15 0.0 0.0 0.00 0.00 0.00 86 1012.2
20260506043517 15 0.0 0.0 0.00 0.00 0.00 85 1012.2
20260506042517 15 0.0 1.6 0.00 0.00 0.00 84 1012.1
20260506041518 15 0.0 1.6 0.00 0.00 0.00 82 1012.2
20260506040518 15 0.0 1.6 0.00 0.00 0.00 82 1012.2
20260506035518 15 0.0 0.0 0.00 0.00 0.00 82 1012.2
20260506034518 15 0.0 1.6 0.00 0.00 0.00 82 1012.2
20260506033537 15 0.0 0.0 0.00 0.00 0.00 81 1012.3
20260506032518 15 0.0 0.0 0.00 0.00 0.00 81 1012.2
20260506031518 15 0.0 1.6 0.00 0.00 0.00 82 1012.1
20260506030517 15 0.0 0.0 0.00 0.00 0.00 82 1011.9
20260506025517 15 0.0 0.0 0.00 0.00 0.00 82 1011.8
20260506024519 15 0.0 0.0 0.00 0.00 0.00 83 1011.8
20260506023538 15 0.0 0.0 0.00 0.00 0.00 84 1011.8
20260506022517 15 270 1.6 3.2 0.00 0.00 0.00 84 1011.8
20260506021556 15 0.0 0.0 0.00 0.00 0.00 84 1011.8
20260506020517 15 0.0 1.6 0.00 0.00 0.00 82 1011.8
20260506015517 15 0.0 3.2 0.00 0.00 0.00 80 1011.8
20260506014538 15 293 1.6 4.8 0.00 0.00 0.00 78 1011.9
20260506013518 15 0.0 0.0 0.00 0.00 0.00 76 1011.8
20260506012518 16 0.0 4.8 0.00 0.00 0.00 75 1011.8
20260506011538 16 293 1.6 4.8 0.00 0.00 0.00 73 1011.7
20260506010518 15 45 1.6 3.2 0.00 0.00 0.00 70 1011.7
20260506005517 15 0.0 1.6 0.00 0.00 0.00 72 1011.6
20260506004518 15 270 1.6 3.2 0.00 0.00 0.00 69 1011.6
20260506003538 16 270 1.6 4.8 0.00 0.00 0.00 69 1011.7